Location: Newark
(11.2914°S, 14.4718°E)
Time: 19:10:59
(UTC+00:00)

Vanguard 2 - All Passes

Search period start: 18 October 2019 00:00
Search period end: 28 October 2019 00:00
Orbit: 554 x 2937 km, 32.9° (Epoch: 17 October)

Date Brightness Start Highest point End Pass type
(mag) Time Alt. Az. Time Alt. Az. Time Alt. Az.
18 Oct - 00:36:25 10° NNW 00:52:06 39° NNE 01:04:15 10° E visible
18 Oct - 02:48:11 10° NW 03:04:36 90° SSW 03:14:50 10° ESE visible
18 Oct - 05:04:29 10° W 05:15:15 33° SSW 05:22:15 10° SSE daylight
18 Oct - 07:25:35 10° SSW 07:26:03 10° SSW 07:26:30 10° SSW daylight
18 Oct - 11:43:06 10° SW 11:46:50 37° SSE 11:50:55 10° E daylight
18 Oct - 13:51:37 10° W 13:55:14 24° NNW 13:59:58 10° NNE daylight
18 Oct - 22:45:38 10° N 22:56:35 19° NNE 23:06:58 10° ENE visible
19 Oct - 00:53:48 10° NW 01:10:37 50° NE 01:23:08 10° ESE visible
19 Oct - 03:06:41 10° WNW 03:22:45 72° SW 03:32:46 10° SE visible
19 Oct - 05:24:18 10° W 05:33:32 26° SSW 05:39:52 10° SSE daylight
19 Oct - 09:54:35 10° S 09:55:55 11° SSE 09:57:11 10° SE daylight
19 Oct - 12:00:50 10° SW 12:04:48 75° SSE 12:09:18 10° ENE daylight
19 Oct - 14:11:07 10° WNW 14:13:33 14° NNW 14:16:23 10° N daylight
19 Oct - 23:02:02 10° NNW 23:15:29 26° NNE 23:27:49 10° E visible
20 Oct - 01:11:28 10° NW 01:29:00 64° NE 01:41:40 10° ESE visible
20 Oct - 03:25:34 10° WNW 03:40:54 56° SSW 03:50:35 10° SE visible
20 Oct - 05:44:22 10° WSW 05:51:59 20° SSW 05:57:30 10° SSE daylight
20 Oct - 10:11:18 10° SSW 10:14:18 17° SSE 10:17:02 10° ESE daylight
20 Oct - 12:18:53 10° WSW 12:22:45 53° NNW 12:27:13 10° NE daylight
20 Oct - 21:17:51 10° NNE 21:19:20 10° NNE 21:20:50 10° NE night (unlit)
20 Oct - 23:18:55 10° NNW 23:34:08 35° NE 23:47:42 10° E visible
21 Oct - 01:29:25 10° NW 01:47:18 81° NE 01:59:56 10° ESE visible
21 Oct - 03:44:50 10° W 03:59:06 44° SSW 04:08:20 10° SE visible
21 Oct - 06:04:31 10° SW 06:10:36 17° SSW 06:15:16 10° SSE daylight
21 Oct - 08:21:45 10° S 08:22:21 10° S 08:22:55 10° S daylight
21 Oct - 10:28:40 10° SW 10:32:33 28° SSE 10:36:01 10° E daylight
21 Oct - 12:37:22 10° W 12:40:46 27° NNW 12:44:39 10° NNE daylight
21 Oct - 21:30:03 10° N 21:38:33 15° NNE 21:47:19 10° ENE night (unlit)
21 Oct - 23:36:07 10° NNW 23:52:37 45° NE 00:06:57 10° ESE visible
22 Oct - 01:47:42 10° WNW 02:05:32 83° SW 02:17:59 10° SE visible
22 Oct - 04:04:26 10° W 04:17:25 35° SSW 04:26:06 10° SE visible
22 Oct - 06:24:27 10° SW 06:29:22 15° SSW 06:33:17 10° SSE daylight
22 Oct - 08:38:23 10° SSW 08:41:02 13° S 08:43:19 10° SE daylight
22 Oct - 10:46:20 10° SW 10:50:39 52° SSE 10:54:31 10° ENE daylight
22 Oct - 12:56:41 10° WNW 12:58:53 14° NNW 13:01:14 10° N daylight
22 Oct - 21:45:52 10° N 21:57:24 22° NE 22:09:19 10° ENE night (unlit)
22 Oct - 23:53:36 10° NW 00:10:59 58° NE 00:25:44 10° ESE visible
23 Oct - 02:06:19 10° WNW 02:23:47 67° SSW 02:35:56 10° SE visible
23 Oct - 04:24:20 10° WSW 04:35:55 29° SSW 04:43:54 10° SSE daylight
23 Oct - 06:43:54 10° SW 06:48:12 14° S 06:51:43 10° SSE daylight
23 Oct - 08:55:44 10° SSW 08:59:37 18° SSE 09:02:45 10° ESE daylight
23 Oct - 11:04:17 10° WSW 11:08:38 76° NNW 11:12:36 10° NE daylight
23 Oct - 22:02:26 10° NNW 22:15:59 30° NE 22:29:55 10° E visible
24 Oct - 00:11:21 10° NW 00:29:17 72° NE 00:44:12 10° ESE visible
24 Oct - 02:25:17 10° WNW 02:42:05 55° SSW 02:53:48 10° SE visible
24 Oct - 04:44:25 10° WSW 04:54:35 24° SSW 05:01:49 10° SSE daylight
24 Oct - 07:02:40 10° SSW 07:07:04 15° S 07:10:36 10° SSE daylight
24 Oct - 09:13:15 10° SW 09:18:03 26° SSE 09:21:43 10° E daylight
24 Oct - 11:22:36 10° WSW 11:26:32 36° NW 11:30:13 10° NNE daylight
24 Oct - 20:17:47 10° NNE 20:20:46 11° NE 20:23:51 10° NE night (unlit)
24 Oct - 22:19:23 10° NNW 22:34:23 39° NE 22:49:39 10° E visible
25 Oct - 00:29:23 10° NW 00:47:34 88° NE 01:02:27 10° ESE visible
25 Oct - 02:44:37 10° W 03:00:29 44° SSW 03:11:40 10° SE visible
25 Oct - 05:04:27 10° WSW 05:13:25 21° SSW 05:19:56 10° SSE daylight
25 Oct - 07:20:54 10° SSW 07:25:54 17° S 07:29:45 10° SE daylight
25 Oct - 09:30:58 10° SW 09:36:21 42° SSE 09:40:19 10° E daylight
25 Oct - 11:41:33 10° W 11:44:25 18° NW 11:47:13 10° N daylight
25 Oct - 20:31:09 10° N 20:39:35 16° NE 20:48:56 10° ENE night (unlit)
25 Oct - 22:36:39 10° NNW 22:52:40 50° NE 23:08:48 10° ESE visible
26 Oct - 00:47:43 10° WNW 01:05:51 77° SSW 01:20:31 10° SE visible
26 Oct - 03:04:17 10° W 03:19:04 37° SSW 03:29:34 10° SE visible
26 Oct - 05:24:12 10° SW 05:32:21 20° S 05:38:20 10° SE daylight
26 Oct - 07:38:51 10° SW 07:44:38 21° S 07:48:51 10° ESE daylight
26 Oct - 09:48:54 10° SW 09:54:27 77° SSE 09:58:31 10° ENE daylight
26 Oct - 20:47:04 10° N 20:58:05 24° NE 21:10:39 10° E night (unlit)
26 Oct - 22:54:11 10° NW 23:10:54 64° NE 23:27:32 10° ESE visible
27 Oct - 01:06:23 10° WNW 01:24:13 64° SSW 01:38:31 10° SE visible
27 Oct - 03:24:12 10° WSW 03:37:48 31° SSW 03:47:34 10° SE visible
27 Oct - 05:43:31 10° SW 05:51:20 20° S 05:57:03 10° SE daylight
27 Oct - 07:56:42 10° SW 08:03:15 28° SSE 08:07:46 10° ESE daylight
27 Oct - 10:07:07 10° WSW 10:12:22 55° NW 10:16:20 10° NE daylight
27 Oct - 21:03:41 10° NNW 21:16:23 32° NE 21:31:05 10° E night (unlit)
27 Oct - 23:11:59 10° NW 23:29:07 78° NE 23:45:59 10° ESE visible
